[[{"header":{"parameterUnit":"m.s-1","parameterCategory":1,"la1":30.2991,"la2":30.254,"lo1":-89.0895,"lo2":-89.0444,"dy":0.0017,"dx":0.0017,"nx":28,"ny":28,"refTime":"2024-06-12T09:00:00:Z","depth":0,"parameterNumber":2,"parameterNumberName":"U-component_of_WINDS"},"data":[0,0,0,0,0,0,0,0,0,0,0,0,0,0,0,0,0,0,0,0,0,0,0,0,0,0,0,0,0,0,0,0,0,0,0,0,0,0,0,0,0,0,0,0,0,0,0,0,0,0,0,0,0,0,0,0,0,0,-0.6712,-0.6712,0,-0.6702,-0.6702,-0.6702,-0.6634,-0.6633,-0.6631,-0.6629,-0.6622,-0.6624,-0.6625,0,0,0,0,0,0,0,0,0,0,0,0,0,-0.6674,-0.6675,-0.6712,-0.6712,-0.6711,-0.6702,-0.6702,-0.6701,-0.6635,-0.6633,-0.6631,-0.6629,-0.6622,-0.6623,-0.6625,0,0,0,0,0,0,0,0,0,0,0,0,0,-0.668,-0.6675,-0.6712,-0.6677,-0.6673,-0.6702,-0.6702,-0.6701,-0.6635,-0.6632,-0.663,-0.6628,-0.6621,-0.6623,-0.6625,-0.6687,0,0,-0.6631,-0.6632,0,0,0,0,0,0,0,0,-0.668,-0.6681,-0.6682,-0.6679,-0.6676,-0.6667,-0.6686,-0.6697,-0.6636,-0.665,-0.6629,-0.6626,-0.6639,-0.664,-0.6643,-0.6687,-0.6687,-0.6632,-0.6633,-0.6634,-0.6634,0,0,0,0,0,0,0,-0.6679,-0.6682,-0.6708,-0.6682,-0.6678,-0.6662,-0.666,-0.6687,-0.6659,-0.6648,-0.6643,-0.6643,-0.6637,-0.6642,-0.6643,-0.6686,-0.6632,-0.6633,-0.6635,-0.6635,-0.6779,-0.6781,0,0,0,0,0,0,-0.6684,-0.6682,-0.6708,-0.6707,-0.6672,-0.6665,-0.6663,-0.6672,-0.6658,-0.6653,-0.6645,-0.664,-0.6639,-0.664,-0.6642,-0.6713,-0.6634,-0.6636,-0.6637,-0.6776,-0.6779,-0.6782,0,0,0,0,0,0,-0.6683,-0.6687,-0.6708,-0.6693,-0.6695,-0.6668,-0.6679,-0.6673,-0.6678,-0.6656,-0.665,-0.6655,-0.6637,-0.6639,-0.6676,-0.6712,-0.6636,-0.6638,-0.6773,-0.6777,-0.6781,-0.6855,0,0,0,0,0,0,-0.6682,-0.6687,-0.671,-0.6694,-0.6696,-0.6742,-0.6681,-0.6675,-0.6681,-0.6674,-0.6663,-0.6659,-0.6636,-0.6673,-0.6678,-0.6713,-0.664,-0.677,-0.6775,-0.6779,-0.685,-0.6861,-0.6871,0,0,0,0,0,-0.6681,-0.6733,-0.6711,-0.6715,-0.6724,-0.6745,-0.6746,-0.6716,-0.6684,-0.6707,-0.6693,-0.666,-0.6707,-0.6678,-0.6682,-0.6719,-0.6767,-0.6773,-0.6779,-0.6845,-0.6859,-0.6871,0,0,0,0,0,0,-0.6755,-0.673,-0.6706,-0.6754,-0.6752,-0.6733,-0.6762,-0.6733,-0.6741,-0.6734,-0.6698,-0.6696,-0.6738,-0.6732,-0.67,-0.6777,-0.6731,-0.6738,-0.678,-0.6793,-0.6804,-0.6805,-0.6642,0,0,0,0,0,-0.6776,-0.6794,-0.6772,-0.6816,-0.6816,-0.6789,-0.6797,-0.6774,-0.6771,-0.677,-0.6758,-0.6757,-0.6771,-0.6782,-0.6794,-0.6848,-0.6844,-0.6875,-0.6886,-0.6895,-0.6902,-0.6929,-0.6942,-0.6801,-0.6801,-0.6801,0,0,-0.6822,-0.681,-0.6824,-0.6831,-0.6826,-0.6846,-0.6789,-0.6813,-0.6827,-0.6774,-0.6807,-0.6799,-0.6795,-0.684,-0.686,-0.6836,-0.6939,-0.6902,-0.691,-0.6912,-0.6936,-0.6949,-0.6961,-0.6805,-0.6804,-0.6804,0,0,-0.6914,-0.6908,-0.6943,-0.6939,-0.6932,-0.6914,-0.6922,-0.6907,-0.6899,-0.6932,-0.6892,-0.6909,-0.6934,-0.6933,-0.6935,-0.7025,-0.6994,-0.703,-0.7087,-0.7114,-0.7125,-0.7134,-0.7166,-0.7177,-0.7036,-0.7036,-0.7036,0,-0.6972,-0.6999,-0.6965,-0.6991,-0.6995,-0.6945,-0.6981,-0.6979,-0.6978,-0.6981,-0.6955,-0.6985,-0.6979,-0.7022,-0.7044,-0.7048,-0.7056,-0.7031,-0.7126,-0.7135,-0.7143,-0.7173,-0.7185,-0.7041,-0.704,-0.704,-0.7039,0,-0.707,-0.709,-0.7119,-0.7117,-0.7124,-0.7155,-0.7125,-0.7136,-0.7112,-0.7097,-0.713,-0.712,-0.7129,-0.7137,-0.7115,-0.7178,-0.7163,-0.7132,-0.7085,-0.7162,-0.7189,-0.72,-0.7047,-0.7045,-0.7044,-0.7043,0,0,-0.7211,-0.7187,-0.7199,-0.7196,-0.7184,-0.7199,-0.7227,-0.7234,-0.7244,-0.7244,-0.7266,-0.7288,-0.7258,-0.7261,-0.7238,-0.7261,-0.7332,-0.7226,-0.7226,-0.7246,-0.7399,-0.7423,-0.7437,-0.7311,-0.7313,-0.7314,-0.7399,0,-0.73,-0.7345,-0.7314,-0.7365,-0.7382,-0.7335,-0.7359,-0.7354,-0.734,-0.7353,-0.7337,-0.7352,-0.7312,-0.7313,-0.7334,-0.7319,-0.7362,-0.7312,-0.7332,-0.7333,-0.7335,-0.7451,-0.7477,-0.7557,-0.741,-0.7411,-0.7413,0,-0.7409,-0.7412,-0.7464,-0.7447,-0.7453,-0.7475,-0.7478,-0.7491,-0.7484,-0.7472,-0.7474,-0.7444,-0.747,-0.7424,-0.7459,-0.7426,-0.7432,-0.7426,-0.7428,-0.7429,-0.7378,-0.7455,-0.7582,-0.7594,-0.7429,-0.7428,-0.7427,0,-0.7506,-0.7523,-0.7556,-0.7556,-0.7536,-0.7553,-0.7546,-0.7537,-0.7542,-0.7545,-0.7548,-0.7554,-0.7558,-0.7563,-0.7536,-0.7505,-0.7575,-0.7526,-0.7565,-0.7566,-0.7583,-0.7583,-0.7713,-0.7587,-0.7587,-0.7586,-0.7586,0,-0.7609,-0.7643,-0.7599,-0.762,-0.7656,-0.7619,-0.7656,-0.7644,-0.7636,-0.7653,-0.7613,-0.763,-0.7593,-0.7606,-0.7585,-0.7617,-0.7619,-0.761,-0.7604,-0.7613,-0.7615,-0.7617,-0.7611,-0.7589,-0.7589,-0.7588,-0.7588,0,-0.7724,-0.7696,-0.7729,-0.7707,-0.7702,-0.773,-0.7711,-0.7729,-0.7711,-0.7733,-0.7736,-0.7708,-0.7722,-0.7694,-0.7705,-0.769,-0.7735,-0.772,-0.7737,-0.7733,-0.7774,-0.777,-0.7911,-0.7927,-0.779,-0.7792,-0.7793,0,-0.7791,-0.7816,-0.7796,-0.7804,-0.7798,-0.7812,-0.7817,-0.7781,-0.7788,-0.7781,-0.78,-0.781,-0.7815,-0.7839,-0.782,-0.7827,-0.7812,-0.7861,-0.7813,-0.7822,-0.7813,-0.7811,-0.7813,-0.7871,-0.7873,-0.7874,-0.7875,0,-0.7914,-0.7898,-0.7906,-0.7909,-0.7915,-0.7916,-0.7914,-0.7923,-0.7885,-0.7895,-0.7907,-0.7912,-0.7921,-0.7931,-0.7933,-0.7926,-0.7895,-0.789,-0.7899,-0.791,-0.7918,-0.7914,-0.7764,-0.7887,-0.7886,-0.7885,-0.7884,-0.7884,-0.8007,-0.8026,-0.8014,-0.8024,-0.8018,-0.8016,-0.8032,-0.8014,-0.8024,-0.8027,-0.8006,-0.8023,-0.8014,-0.8014,-0.801,-0.8022,-0.8001,-0.8014,-0.8018,-0.8022,-0.8028,-0.7916,-0.8023,-0.8022,-0.8022,-0.8022,-0.8021,0,-0.8127,-0.8116,-0.8125,-0.8123,-0.813,-0.8098,-0.8093,-0.8102,-0.8117,-0.8111,-0.8117,-0.813,-0.8139,-0.812,-0.8126,-0.814,-0.8125,-0.8142,-0.8141,-0.814,-0.8048,-0.8039,-0.8154,-0.8154,-0.8154,-0.8154,-0.8154,-0.8154,-0.819,-0.822,-0.8203,-0.8229,-0.8218,-0.8234,-0.8234,-0.8232,-0.8226,-0.8243,-0.825,-0.8236,-0.8225,-0.8229,-0.8235,-0.8229,-0.8234,-0.8256,-0.8245,-0.8159,-0.8147,-0.8134,-0.8126,-0.8257,-0.8257,-0.8336,-0.8337,-0.8337]},{"header":{"parameterUnit":"m.s-1","parameterCategory":1,"la1":30.2991,"la2":30.254,"lo1":-89.0895,"lo2":-89.0444,"dy":0.0017,"dx":0.0017,"nx":28,"ny":28,"refTime":"2024-06-12T09:00:00:Z","depth":0,"parameterNumber":3,"parameterNumberName":"V-component_of_WINDS"},"data":[0,0,0,0,0,0,0,0,0,0,0,0,0,0,0,0,0,0,0,0,0,0,0,0,0,0,0,0,0,0,0,0,0,0,0,0,0,0,0,0,0,0,0,0,0,0,0,0,0,0,0,0,0,0,0,0,0,0,-2.6084,-2.6085,0,-2.6196,-2.6197,-2.6198,-2.6216,-2.6215,-2.6214,-2.6213,-2.6325,-2.6328,-2.6332,0,0,0,0,0,0,0,0,0,0,0,0,0,-2.5883,-2.5887,-2.6084,-2.6085,-2.6087,-2.6195,-2.6197,-2.6199,-2.6216,-2.6215,-2.6213,-2.6212,-2.6323,-2.6328,-2.6333,0,0,0,0,0,0,0,0,0,0,0,0,0,-2.598,-2.5888,-2.6084,-2.6108,-2.6112,-2.6195,-2.6197,-2.6199,-2.6216,-2.6215,-2.6213,-2.6212,-2.6322,-2.6327,-2.6333,-2.6399,0,0,-2.6351,-2.6354,0,0,0,0,0,0,0,0,-2.5975,-2.5988,-2.6103,-2.6107,-2.6111,-2.619,-2.6167,-2.6266,-2.6216,-2.6176,-2.6213,-2.6211,-2.6281,-2.629,-2.6314,-2.6404,-2.6409,-2.6352,-2.6355,-2.6358,-2.6359,0,0,0,0,0,0,0,-2.5968,-2.5983,-2.6128,-2.6105,-2.611,-2.6113,-2.6125,-2.6186,-2.6235,-2.618,-2.6181,-2.6194,-2.6283,-2.6308,-2.6317,-2.6411,-2.6351,-2.6357,-2.636,-2.6363,-2.6559,-2.6561,0,0,0,0,0,0,-2.5957,-2.5977,-2.6125,-2.6131,-2.6038,-2.6118,-2.6132,-2.6166,-2.6235,-2.6244,-2.6196,-2.6195,-2.6299,-2.631,-2.6321,-2.6402,-2.6358,-2.6363,-2.6366,-2.6558,-2.656,-2.6562,0,0,0,0,0,0,-2.5953,-2.597,-2.612,-2.6055,-2.6074,-2.6123,-2.6162,-2.6169,-2.6195,-2.6247,-2.6256,-2.6213,-2.6298,-2.6313,-2.6379,-2.6406,-2.6366,-2.6371,-2.6556,-2.6558,-2.6561,-2.6564,0,0,0,0,0,0,-2.5947,-2.5968,-2.5994,-2.6055,-2.6078,-2.6177,-2.6163,-2.6172,-2.6205,-2.6205,-2.6266,-2.6274,-2.6298,-2.6371,-2.6385,-2.6413,-2.6376,-2.6553,-2.6557,-2.656,-2.6561,-2.6566,-2.657,0,0,0,0,0,-2.594,-2.599,-2.5996,-2.6013,-2.6111,-2.6179,-2.6191,-2.6219,-2.6207,-2.6233,-2.6267,-2.6272,-2.6401,-2.6377,-2.6394,-2.6424,-2.6552,-2.6556,-2.656,-2.6559,-2.6565,-2.657,0,0,0,0,0,0,-2.593,-2.5999,-2.6005,-2.6077,-2.6122,-2.6182,-2.6215,-2.6224,-2.6273,-2.6271,-2.6302,-2.6316,-2.6381,-2.6409,-2.6382,-2.6491,-2.6475,-2.6483,-2.6469,-2.6475,-2.6479,-2.6471,-2.6381,0,0,0,0,0,-2.5937,-2.5987,-2.6044,-2.6102,-2.6124,-2.6166,-2.6196,-2.6214,-2.6261,-2.628,-2.6318,-2.6363,-2.6414,-2.6446,-2.6496,-2.6566,-2.6579,-2.6595,-2.6599,-2.6602,-2.6608,-2.6646,-2.6654,-2.6574,-2.6574,-2.6574,0,0,-2.595,-2.5994,-2.6023,-2.6101,-2.6138,-2.6188,-2.6182,-2.6235,-2.6272,-2.6288,-2.6353,-2.6383,-2.6435,-2.6504,-2.6536,-2.6529,-2.6633,-2.6607,-2.661,-2.6613,-2.6651,-2.6659,-2.6665,-2.6577,-2.6576,-2.6576,0,0,-2.6,-2.6039,-2.6091,-2.6128,-2.6185,-2.6212,-2.6225,-2.6283,-2.6304,-2.637,-2.6382,-2.6427,-2.6514,-2.655,-2.658,-2.6645,-2.6651,-2.666,-2.6682,-2.6719,-2.6725,-2.6731,-2.6752,-2.676,-2.6666,-2.6666,-2.6666,0,-2.601,-2.6087,-2.6117,-2.617,-2.6203,-2.6221,-2.6273,-2.6308,-2.6377,-2.6399,-2.6391,-2.65,-2.6537,-2.6614,-2.663,-2.6654,-2.6668,-2.6652,-2.6722,-2.6728,-2.6734,-2.6755,-2.6763,-2.6666,-2.6666,-2.6666,-2.6666,0,-2.6095,-2.6148,-2.6183,-2.625,-2.6288,-2.634,-2.6377,-2.6412,-2.6426,-2.6454,-2.6521,-2.6566,-2.6624,-2.6644,-2.6659,-2.6723,-2.6718,-2.6716,-2.67,-2.6741,-2.6762,-2.677,-2.6667,-2.6667,-2.6667,-2.6667,0,0,-2.6141,-2.6224,-2.6237,-2.6267,-2.633,-2.6372,-2.6425,-2.6483,-2.6511,-2.6558,-2.6603,-2.6676,-2.6675,-2.6709,-2.6728,-2.676,-2.6807,-2.6754,-2.6756,-2.6761,-2.688,-2.688,-2.6889,-2.6813,-2.6814,-2.6816,-2.6875,0,-2.6197,-2.6293,-2.6322,-2.6402,-2.6451,-2.6468,-2.6515,-2.6558,-2.6586,-2.6631,-2.6662,-2.6712,-2.6707,-2.6728,-2.6761,-2.6794,-2.6831,-2.6791,-2.6853,-2.6855,-2.6838,-2.69,-2.69,-2.6954,-2.6883,-2.6885,-2.6886,0,-2.6276,-2.6325,-2.641,-2.6467,-2.6488,-2.6529,-2.6585,-2.6628,-2.6677,-2.6695,-2.6734,-2.675,-2.6805,-2.6788,-2.6864,-2.6836,-2.6863,-2.6884,-2.6886,-2.6892,-2.6871,-2.6905,-2.6972,-2.6979,-2.6899,-2.6898,-2.6897,0,-2.6299,-2.6387,-2.6449,-2.6474,-2.6543,-2.6571,-2.6601,-2.6649,-2.6682,-2.673,-2.6752,-2.6806,-2.6835,-2.6876,-2.6906,-2.6891,-2.6979,-2.6965,-2.6994,-2.6993,-2.701,-2.7009,-2.7081,-2.7031,-2.7031,-2.703,-2.703,0,-2.6358,-2.6409,-2.646,-2.6498,-2.6555,-2.6588,-2.6644,-2.6674,-2.6717,-2.6761,-2.678,-2.682,-2.6858,-2.6903,-2.6927,-2.6986,-2.6999,-2.7014,-2.702,-2.7012,-2.701,-2.7029,-2.7025,-2.7033,-2.7032,-2.7032,-2.7031,0,-2.6393,-2.6429,-2.6498,-2.6558,-2.6574,-2.6613,-2.6664,-2.6701,-2.673,-2.6785,-2.68,-2.6845,-2.6899,-2.6934,-2.7003,-2.7019,-2.7082,-2.7088,-2.7066,-2.7068,-2.7095,-2.7092,-2.7181,-2.7194,-2.7136,-2.7137,-2.7137,0,-2.6427,-2.6467,-2.6531,-2.6562,-2.6592,-2.6642,-2.6676,-2.6709,-2.6744,-2.6803,-2.6833,-2.6889,-2.6935,-2.7021,-2.7059,-2.7112,-2.7117,-2.7145,-2.7125,-2.7116,-2.7116,-2.7113,-2.7116,-2.7148,-2.7148,-2.7149,-2.7149,0,-2.6484,-2.65,-2.6549,-2.6604,-2.6644,-2.6689,-2.6733,-2.6757,-2.6799,-2.6836,-2.6893,-2.6928,-2.6999,-2.7054,-2.711,-2.714,-2.7151,-2.7155,-2.7164,-2.7156,-2.7141,-2.7148,-2.7073,-2.7152,-2.7152,-2.7152,-2.7152,-2.7151,-2.6519,-2.6555,-2.6606,-2.6659,-2.6696,-2.6738,-2.6775,-2.6809,-2.6857,-2.6918,-2.6935,-2.6993,-2.7041,-2.7118,-2.7149,-2.7195,-2.7191,-2.7205,-2.7208,-2.7211,-2.721,-2.7135,-2.7205,-2.7205,-2.7205,-2.7205,-2.7205,0,-2.6576,-2.6609,-2.6658,-2.672,-2.6762,-2.677,-2.682,-2.6854,-2.6906,-2.695,-2.6996,-2.706,-2.7113,-2.7156,-2.7211,-2.7239,-2.7245,-2.7252,-2.7249,-2.7256,-2.7211,-2.7197,-2.7246,-2.7246,-2.7246,-2.7246,-2.7246,-2.7246,-2.661,-2.6671,-2.6693,-2.6772,-2.6806,-2.6863,-2.6891,-2.6929,-2.6965,-2.7036,-2.708,-2.7109,-2.7152,-2.721,-2.7259,-2.7271,-2.7289,-2.7295,-2.7307,-2.7264,-2.7259,-2.7255,-2.7241,-2.7299,-2.7299,-2.7347,-2.7348,-2.7348]}]]